Location: Avully
(45.9633°N, 6.0228°E)
Time: 04:31:20
(UTC+00:00)

ADEOS II - Pass Details

Date: 23 May 2024
Orbit: 796 x 798 km, 98.7° (Epoch: 21 June)

Event Time Altitude Azimuth Distance (km) Brightness Sun altitude
Rises 02:53:09 0° 6° (N) 3,312 6.2 -9.4°
Reaches altitude 10° 02:55:39 10° 358° (N) 2,377 5.2 -9.1°
Maximum altitude 03:00:22 35° 294° (WNW) 1,261 2.9 -8.5°
Drops below altitude 10° 03:05:04 10° 230° (SW) 2,363 3.8 -7.9°
Enters shadow 03:05:10 10° 230° (SW) 2,397 3.9 -7.9°
